This demonstration page uses our WeatherBlox Daily Observations layout. Learn more.

Left ArrowRight Arrow

39.01783, -85.05884

Hourly Observations for August 4, 2015

Temp ( °F °C ) Dew Point ( °F °C ) Humidity (%) Winds ( mph kmh ) Pressure ( in mb ) Visibility ( mi km ) Precip ( " mm )
12:52 am 00:52 Mostly Cloudy 72 22.2 65 18.3 79 79 SSW 3 6 29.9 1013 10 16.0934 N/A
1:52 am 01:52 Mostly Clear 70 21.1 65 18.3 84 84 N N/A 29.9 1013 10 16.0934 N/A
2:52 am 02:52 Mostly Cloudy 69 20.6 66 18.9 90 90 N N/A 29.91 1013 9 14.48406 N/A
3:19 am 03:19 Partly Cloudy 70 21 66 19 88 88 NNE 6 9 29.91 1013 10 16.0934 N/A
3:52 am 03:52 Partly Cloudy 69 20.6 66 18.9 90 90 NNE 5 7 29.91 1013 8 12.87472 N/A
4:52 am 04:52 Mostly Clear with Mist and Fog 67 19.4 65 18.3 93 93 N N/A 29.91 1013 6 9.65604 N/A
5:52 am 05:52 Clear 69 20.6 65 18.3 87 87 N N/A 29.92 1013 8 12.87472 N/A
6:52 am 06:52 Partly Cloudy with Mist and Fog 65 18.3 63 17.2 93 93 N N/A 29.95 1014 6 9.65604 N/A
7:52 am 07:52 Partly Cloudy 69 20.6 66 18.9 90 90 SE 3 6 29.95 1014 7 11.26538 N/A
8:52 am 08:52 Mostly Sunny 73 22.8 67 19.4 81 81 N N/A 29.96 1015 8 12.87472 N/A
9:52 am 09:52 Partly Cloudy 75 23.9 67 19.4 76 76 N N/A 29.97 1015 10 16.0934 N/A
10:52 am 10:52 Mostly Cloudy 79 26.1 65 18.3 62 62 W 9 15 29.97 1015 10 16.0934 N/A
11:52 am 11:52 Mostly Cloudy 80 26.7 64 17.8 58 58 WSW 10 17 29.97 1015 10 16.0934 N/A
12:52 pm 12:52 Mostly Cloudy 83 28.3 60 15.6 46 46 W 12 19 29.96 1015 10 16.0934 N/A
1:52 pm 13:52 Mostly Cloudy 83 28.3 57 13.9 41 41 W 9 15 29.96 1015 10 16.0934 N/A
2:52 pm 14:52 Mostly Cloudy 84 28.9 59 15 43 43 W 12 19 29.96 1015 10 16.0934 N/A
3:52 pm 15:52 Mostly Cloudy 81 27.2 60 15.6 49 49 W 9 15 29.96 1015 10 16.0934 N/A
4:52 pm 16:52 Mostly Cloudy 80 26.7 64 17.8 58 58 W 12 19 29.96 1014 10 16.0934 N/A
5:52 pm 17:52 Sunny 81 27.2 61 16.1 51 51 WNW 12 19 29.96 1014 10 16.0934 N/A
6:52 pm 18:52 Mostly Cloudy 80 26.7 60 15.6 51 51 WNW 8 13 29.96 1015 10 16.0934 N/A
7:52 pm 19:52 Mostly Cloudy 78 25.6 62 16.7 58 58 N 5 7 29.95 1014 10 16.0934 N/A
8:52 pm 20:52 Cloudy 72 22.2 62 16.7 71 71 WSW 5 7 29.98 1015 10 16.0934 N/A
9:52 pm 21:52 Cloudy 71 21.7 63 17.2 76 76 SSW 3 6 30.01 1016 10 16.0934 N/A
10:52 pm 22:52 Cloudy 72 22.2 60 15.6 66 66 N N/A 30.01 1016 10 16.0934 N/A
11:52 pm 23:52 Cloudy 71 21.7 61 16.1 71 71 N N/A 29.99 1016 10 16.0934 N/A

Powered by AerisWeather